Year,Month,Day,Hour,Minute,Value (Times are PST for temperature in C)
2014,08,07,00,00,15.70
2014,08,07,00,01,15.70
2014,08,07,00,02,15.70
2014,08,07,00,03,15.60
2014,08,07,00,04,15.60
2014,08,07,00,05,15.50
2014,08,07,00,06,15.50
2014,08,07,00,07,15.40
2014,08,07,00,08,15.40
2014,08,07,00,09,15.40
2014,08,07,00,10,15.40
2014,08,07,00,11,15.40
2014,08,07,00,12,15.40
2014,08,07,00,13,15.40
2014,08,07,00,14,15.40
2014,08,07,00,15,15.40
2014,08,07,00,16,15.40
2014,08,07,00,17,15.30
2014,08,07,00,18,15.30
2014,08,07,00,19,15.20
2014,08,07,00,20,15.20
2014,08,07,00,21,15.20
2014,08,07,00,22,15.20
2014,08,07,00,23,15.20
2014,08,07,00,24,15.20
2014,08,07,00,25,15.20
2014,08,07,00,26,15.20
2014,08,07,00,27,15.30
2014,08,07,00,28,15.30
2014,08,07,00,29,15.30
2014,08,07,00,30,15.30
2014,08,07,00,31,15.30
2014,08,07,00,32,15.40
2014,08,07,00,33,15.40
2014,08,07,00,34,15.40
2014,08,07,00,35,15.40
2014,08,07,00,36,15.40
2014,08,07,00,37,15.40
2014,08,07,00,38,15.30
2014,08,07,00,39,15.30
2014,08,07,00,40,15.30
2014,08,07,00,41,15.30
2014,08,07,00,42,15.30
2014,08,07,00,43,15.30
2014,08,07,00,44,15.20
2014,08,07,00,45,15.20
2014,08,07,00,46,15.20
2014,08,07,00,47,15.20
2014,08,07,00,48,15.20
2014,08,07,00,49,15.20
2014,08,07,00,50,15.20
2014,08,07,00,51,15.20
2014,08,07,00,52,15.20
2014,08,07,00,53,15.20
2014,08,07,00,54,15.20
2014,08,07,00,55,15.20
2014,08,07,00,56,15.20
2014,08,07,00,57,15.20
2014,08,07,00,58,15.20
2014,08,07,00,59,15.10
2014,08,07,01,00,15.10
2014,08,07,01,01,15.10
2014,08,07,01,02,15.10
2014,08,07,01,03,15.00
2014,08,07,01,04,15.00
2014,08,07,01,05,14.90
2014,08,07,01,06,14.90
2014,08,07,01,07,14.90
2014,08,07,01,08,14.90
2014,08,07,01,09,14.90
2014,08,07,01,10,14.80
2014,08,07,01,11,14.80
2014,08,07,01,12,14.80
2014,08,07,01,13,14.80
2014,08,07,01,14,14.80
2014,08,07,01,15,14.80
2014,08,07,01,16,14.70
2014,08,07,01,17,14.70
2014,08,07,01,18,14.70
2014,08,07,01,19,14.70
2014,08,07,01,20,14.70
2014,08,07,01,21,14.70
2014,08,07,01,22,14.70
2014,08,07,01,23,14.70
2014,08,07,01,24,14.70
2014,08,07,01,25,14.60
2014,08,07,01,26,14.60
2014,08,07,01,27,14.60
2014,08,07,01,28,14.60
2014,08,07,01,29,14.60
2014,08,07,01,30,14.60
2014,08,07,01,31,14.60
2014,08,07,01,32,14.60
2014,08,07,01,33,14.60
2014,08,07,01,34,14.60
2014,08,07,01,35,14.60
2014,08,07,01,36,14.60
2014,08,07,01,37,14.60
2014,08,07,01,38,14.60
2014,08,07,01,39,14.60
2014,08,07,01,40,14.60
2014,08,07,01,41,14.60
2014,08,07,01,42,14.60
2014,08,07,01,43,14.50
2014,08,07,01,44,14.50
2014,08,07,01,45,14.40
2014,08,07,01,46,14.40
2014,08,07,01,47,14.40
2014,08,07,01,48,14.40
2014,08,07,01,49,14.30
2014,08,07,01,50,14.30
2014,08,07,01,51,14.30
2014,08,07,01,52,14.30
2014,08,07,01,53,14.30
2014,08,07,01,54,14.30
2014,08,07,01,55,14.30
2014,08,07,01,56,14.30
2014,08,07,01,57,14.30
2014,08,07,01,58,14.30
2014,08,07,01,59,14.30
2014,08,07,02,00,14.30
2014,08,07,02,01,14.30
2014,08,07,02,02,14.30
2014,08,07,02,03,14.30
2014,08,07,02,04,14.30
2014,08,07,02,05,14.20
2014,08,07,02,06,14.20
2014,08,07,02,07,14.10
2014,08,07,02,08,14.10
2014,08,07,02,09,14.00
2014,08,07,02,10,14.00
2014,08,07,02,11,13.90
2014,08,07,02,12,13.90
2014,08,07,02,13,13.90
2014,08,07,02,14,13.80
2014,08,07,02,15,13.80
2014,08,07,02,16,13.70
2014,08,07,02,17,13.70
2014,08,07,02,18,13.60
2014,08,07,02,19,13.60
2014,08,07,02,20,13.60
2014,08,07,02,21,13.50
2014,08,07,02,22,13.50
2014,08,07,02,23,13.40
2014,08,07,02,24,13.40
2014,08,07,02,25,13.30
2014,08,07,02,26,13.30
2014,08,07,02,27,13.20
2014,08,07,02,28,13.20
2014,08,07,02,29,13.20
2014,08,07,02,30,13.20
2014,08,07,02,31,13.20
2014,08,07,02,32,13.10
2014,08,07,02,33,13.10
2014,08,07,02,34,13.10
2014,08,07,02,35,13.10
2014,08,07,02,36,13.00
2014,08,07,02,37,13.00
2014,08,07,02,38,13.00
2014,08,07,02,39,13.00
2014,08,07,02,40,12.90
2014,08,07,02,41,12.90
2014,08,07,02,42,12.90
2014,08,07,02,43,12.90
2014,08,07,02,44,12.90
2014,08,07,02,45,12.80
2014,08,07,02,46,12.80
2014,08,07,02,47,12.80
2014,08,07,02,48,12.80
2014,08,07,02,49,12.80
2014,08,07,02,50,12.80
2014,08,07,02,51,12.80
2014,08,07,02,52,12.80
2014,08,07,02,53,12.80
2014,08,07,02,54,12.80
2014,08,07,02,55,12.80
2014,08,07,02,56,12.80
2014,08,07,02,57,12.80
2014,08,07,02,58,12.80
2014,08,07,02,59,12.80
2014,08,07,03,00,12.70
2014,08,07,03,01,12.70
2014,08,07,03,02,12.70
2014,08,07,03,03,12.70
2014,08,07,03,04,12.70
2014,08,07,03,05,12.70
2014,08,07,03,06,12.70
2014,08,07,03,07,12.70
2014,08,07,03,08,12.70
2014,08,07,03,09,12.70
2014,08,07,03,10,12.70
2014,08,07,03,11,12.70
2014,08,07,03,12,12.70
2014,08,07,03,13,12.70
2014,08,07,03,14,12.70
2014,08,07,03,15,12.60
2014,08,07,03,16,12.60
2014,08,07,03,17,12.60
2014,08,07,03,18,12.60
2014,08,07,03,19,12.60
2014,08,07,03,20,12.60
2014,08,07,03,21,12.60
2014,08,07,03,22,12.70
2014,08,07,03,23,12.70
2014,08,07,03,24,12.70
2014,08,07,03,25,12.70
2014,08,07,03,26,12.70
2014,08,07,03,27,12.70
2014,08,07,03,28,12.80
2014,08,07,03,29,12.80
2014,08,07,03,30,12.80
2014,08,07,03,31,12.80
2014,08,07,03,32,12.80
2014,08,07,03,33,12.80
2014,08,07,03,34,12.90
2014,08,07,03,35,12.90
2014,08,07,03,36,12.90
2014,08,07,03,37,12.90
2014,08,07,03,38,12.90
2014,08,07,03,39,12.90
2014,08,07,03,40,12.90
2014,08,07,03,41,12.90
2014,08,07,03,42,12.90
2014,08,07,03,43,12.80
2014,08,07,03,44,12.80
2014,08,07,03,45,12.80
2014,08,07,03,46,12.80
2014,08,07,03,47,12.80
2014,08,07,03,48,12.80
2014,08,07,03,49,12.80
2014,08,07,03,50,12.80
2014,08,07,03,51,12.80
2014,08,07,03,52,12.80
2014,08,07,03,53,12.80
2014,08,07,03,54,12.80
2014,08,07,03,55,12.80
2014,08,07,03,56,12.90
2014,08,07,03,57,12.90
2014,08,07,03,58,12.90
2014,08,07,03,59,12.80
2014,08,07,04,00,12.80
2014,08,07,04,01,12.80
2014,08,07,04,02,12.80
2014,08,07,04,03,12.90
2014,08,07,04,04,12.90
2014,08,07,04,05,12.90
2014,08,07,04,06,13.00
2014,08,07,04,07,13.00
2014,08,07,04,08,13.00
2014,08,07,04,09,13.00
2014,08,07,04,10,12.90
2014,08,07,04,11,12.90
2014,08,07,04,12,12.90
2014,08,07,04,13,13.00
2014,08,07,04,14,13.00
2014,08,07,04,15,12.90
2014,08,07,04,16,12.80
2014,08,07,04,17,12.70
2014,08,07,04,18,12.70
2014,08,07,04,19,12.70
2014,08,07,04,20,12.70
2014,08,07,04,21,12.70
2014,08,07,04,22,12.70
2014,08,07,04,23,12.60
2014,08,07,04,24,12.60
2014,08,07,04,25,12.60
2014,08,07,04,26,12.60
2014,08,07,04,27,12.50
2014,08,07,04,28,12.50
2014,08,07,04,29,12.50
2014,08,07,04,30,12.40
2014,08,07,04,31,12.40
2014,08,07,04,32,12.40
2014,08,07,04,33,12.30
2014,08,07,04,34,12.30
2014,08,07,04,35,12.30
2014,08,07,04,36,12.20
2014,08,07,04,37,12.20
2014,08,07,04,38,12.20
2014,08,07,04,39,12.20
2014,08,07,04,40,12.20
2014,08,07,04,41,12.10
2014,08,07,04,42,12.10
2014,08,07,04,43,12.00
2014,08,07,04,44,11.90
2014,08,07,04,45,11.90
2014,08,07,04,46,11.80
2014,08,07,04,47,11.80
2014,08,07,04,48,11.70
2014,08,07,04,49,11.70
2014,08,07,04,50,11.70
2014,08,07,04,51,11.70
2014,08,07,04,52,11.70
2014,08,07,04,53,11.70
2014,08,07,04,54,11.70
2014,08,07,04,55,11.70
2014,08,07,04,56,11.70
2014,08,07,04,57,11.70
2014,08,07,04,58,11.70
2014,08,07,04,59,11.70
2014,08,07,05,00,11.70
2014,08,07,05,01,11.70
2014,08,07,05,02,11.70
2014,08,07,05,03,11.70
2014,08,07,05,04,11.60
2014,08,07,05,05,11.60
2014,08,07,05,06,11.60
2014,08,07,05,07,11.60
2014,08,07,05,08,11.50
2014,08,07,05,09,11.50
2014,08,07,05,10,11.40
2014,08,07,05,11,11.40
2014,08,07,05,12,11.40
2014,08,07,05,13,11.40
2014,08,07,05,14,11.40
2014,08,07,05,15,11.40
2014,08,07,05,16,11.40
2014,08,07,05,17,11.40
2014,08,07,05,18,11.50
2014,08,07,05,19,11.50
2014,08,07,05,20,11.50
2014,08,07,05,21,11.50
2014,08,07,05,22,11.50
2014,08,07,05,23,11.50
2014,08,07,05,24,11.60
2014,08,07,05,25,11.60
2014,08,07,05,26,11.60
2014,08,07,05,27,11.60
2014,08,07,05,28,11.60
2014,08,07,05,29,11.60
2014,08,07,05,30,11.50
2014,08,07,05,31,11.50
2014,08,07,05,32,11.40
2014,08,07,05,33,11.40
2014,08,07,05,34,11.40
2014,08,07,05,35,11.30
2014,08,07,05,36,11.30
2014,08,07,05,37,11.30
2014,08,07,05,38,11.30
2014,08,07,05,39,11.30
2014,08,07,05,40,11.20
2014,08,07,05,41,11.20
2014,08,07,05,42,11.20
2014,08,07,05,43,11.30
2014,08,07,05,44,11.30
2014,08,07,05,45,11.30
2014,08,07,05,46,11.30
2014,08,07,05,47,11.30
2014,08,07,05,48,11.30
2014,08,07,05,49,11.30
2014,08,07,05,50,11.30
2014,08,07,05,51,11.30
2014,08,07,05,52,11.30
2014,08,07,05,53,11.30
2014,08,07,05,54,11.30
2014,08,07,05,55,11.30
2014,08,07,05,56,11.30
2014,08,07,05,57,11.30
2014,08,07,05,58,11.30
2014,08,07,05,59,11.30
2014,08,07,06,00,11.20
2014,08,07,06,01,11.20
2014,08,07,06,02,11.20
2014,08,07,06,03,11.20
2014,08,07,06,04,11.20
2014,08,07,06,05,11.20
2014,08,07,06,06,11.20
2014,08,07,06,07,11.20
2014,08,07,06,08,11.20
2014,08,07,06,09,11.20
2014,08,07,06,10,11.20
2014,08,07,06,11,11.20
2014,08,07,06,12,11.20
2014,08,07,06,13,11.20
2014,08,07,06,14,11.20
2014,08,07,06,15,11.20
2014,08,07,06,16,11.10
2014,08,07,06,17,11.10
2014,08,07,06,18,11.10
2014,08,07,06,19,11.10
2014,08,07,06,20,11.10
2014,08,07,06,21,11.10
2014,08,07,06,22,11.10
2014,08,07,06,23,11.00
2014,08,07,06,24,11.00
2014,08,07,06,25,11.00
2014,08,07,06,26,11.00
2014,08,07,06,27,11.00
2014,08,07,06,28,11.00
2014,08,07,06,29,11.00
2014,08,07,06,30,11.10
2014,08,07,06,31,11.10
2014,08,07,06,32,11.10
2014,08,07,06,33,11.10
2014,08,07,06,34,11.10
2014,08,07,06,35,11.20
2014,08,07,06,36,11.20
2014,08,07,06,37,11.20
2014,08,07,06,38,11.30
2014,08,07,06,39,11.30
2014,08,07,06,40,11.30
2014,08,07,06,41,11.40
2014,08,07,06,42,11.40
2014,08,07,06,43,11.40
2014,08,07,06,44,11.50
2014,08,07,06,45,11.60
2014,08,07,06,46,11.60
2014,08,07,06,47,11.70
2014,08,07,06,48,11.70
2014,08,07,06,49,11.80
2014,08,07,06,50,11.80
2014,08,07,06,51,11.80
2014,08,07,06,52,11.80
2014,08,07,06,53,11.90
2014,08,07,06,54,11.90
2014,08,07,06,55,11.90
2014,08,07,06,56,11.90
2014,08,07,06,57,12.00
2014,08,07,06,58,12.00
2014,08,07,06,59,12.10
2014,08,07,07,00,12.10
2014,08,07,07,01,12.10
2014,08,07,07,02,12.20
2014,08,07,07,03,12.20
2014,08,07,07,04,12.20
2014,08,07,07,05,12.20
2014,08,07,07,06,12.30
2014,08,07,07,07,12.30
2014,08,07,07,08,12.40
2014,08,07,07,09,12.50
2014,08,07,07,10,12.50
2014,08,07,07,11,12.60
2014,08,07,07,12,12.70
2014,08,07,07,13,12.70
2014,08,07,07,14,12.80
2014,08,07,07,15,12.90
2014,08,07,07,16,13.00
2014,08,07,07,17,13.00
2014,08,07,07,18,13.10
2014,08,07,07,19,13.20
2014,08,07,07,20,13.20
2014,08,07,07,21,13.30
2014,08,07,07,22,13.30
2014,08,07,07,23,13.40
2014,08,07,07,24,13.40
2014,08,07,07,25,13.50
2014,08,07,07,26,13.60
2014,08,07,07,27,13.70
2014,08,07,07,28,13.80
2014,08,07,07,29,13.90
2014,08,07,07,30,14.00
2014,08,07,07,31,14.10
2014,08,07,07,32,14.10
2014,08,07,07,33,14.20
2014,08,07,07,34,14.30
2014,08,07,07,35,14.30
2014,08,07,07,36,14.40
2014,08,07,07,37,14.50
2014,08,07,07,38,14.60
2014,08,07,07,39,14.60
2014,08,07,07,40,14.70
2014,08,07,07,41,14.70
2014,08,07,07,42,14.70
2014,08,07,07,43,14.70
2014,08,07,07,44,14.60
2014,08,07,07,45,14.60
2014,08,07,07,46,14.50
2014,08,07,07,47,14.50
2014,08,07,07,48,14.50
2014,08,07,07,49,14.50
2014,08,07,07,50,14.50
2014,08,07,07,51,14.40
2014,08,07,07,52,14.40
2014,08,07,07,53,14.30
2014,08,07,07,54,14.20
2014,08,07,07,55,14.20
2014,08,07,07,56,14.20
2014,08,07,07,57,14.20
2014,08,07,07,58,14.20
2014,08,07,07,59,14.10
2014,08,07,08,00,14.10
2014,08,07,08,01,14.10
2014,08,07,08,02,14.20
2014,08,07,08,03,14.20
2014,08,07,08,04,14.20
2014,08,07,08,05,14.30
2014,08,07,08,06,14.40
2014,08,07,08,07,14.50
2014,08,07,08,08,14.60
2014,08,07,08,09,14.60
2014,08,07,08,10,14.70
2014,08,07,08,11,14.70
2014,08,07,08,12,14.70
2014,08,07,08,13,14.80
2014,08,07,08,14,14.80
2014,08,07,08,15,14.90
2014,08,07,08,16,15.00
2014,08,07,08,17,15.10
2014,08,07,08,18,15.10
2014,08,07,08,19,15.20
2014,08,07,08,20,15.30
2014,08,07,08,21,15.40
2014,08,07,08,22,15.40
2014,08,07,08,23,15.50
2014,08,07,08,24,15.50
2014,08,07,08,25,15.50
2014,08,07,08,26,15.50
2014,08,07,08,27,15.50
2014,08,07,08,28,15.60
2014,08,07,08,29,15.60
2014,08,07,08,30,15.60
2014,08,07,08,31,15.60
2014,08,07,08,32,15.60
2014,08,07,08,33,15.70
2014,08,07,08,34,15.80
2014,08,07,08,35,15.80
2014,08,07,08,36,15.80
2014,08,07,08,37,15.80
2014,08,07,08,38,15.90
2014,08,07,08,39,15.90
2014,08,07,08,40,16.00
2014,08,07,08,41,16.10
2014,08,07,08,42,16.20
2014,08,07,08,43,16.20
2014,08,07,08,44,16.30
2014,08,07,08,45,16.30
2014,08,07,08,46,16.40
2014,08,07,08,47,16.40
2014,08,07,08,48,16.50
2014,08,07,08,49,16.60
2014,08,07,08,50,16.60
2014,08,07,08,51,16.70
2014,08,07,08,52,16.70
2014,08,07,08,53,16.80
2014,08,07,08,54,16.80
2014,08,07,08,55,16.70
2014,08,07,08,56,16.70
2014,08,07,08,57,16.60
2014,08,07,08,58,16.60
2014,08,07,08,59,16.60
2014,08,07,09,00,16.60
2014,08,07,09,01,16.60
2014,08,07,09,02,16.70
2014,08,07,09,03,16.60
2014,08,07,09,04,16.60
2014,08,07,09,05,16.70
2014,08,07,09,06,16.70
2014,08,07,09,07,16.80
2014,08,07,09,08,16.90
2014,08,07,09,09,17.00
2014,08,07,09,10,17.10
2014,08,07,09,11,17.10
2014,08,07,09,12,17.20
2014,08,07,09,13,17.20
2014,08,07,09,14,17.20
2014,08,07,09,15,17.20
2014,08,07,09,16,17.20
2014,08,07,09,17,17.20
2014,08,07,09,18,17.20
2014,08,07,09,19,17.20
2014,08,07,09,20,17.20
2014,08,07,09,21,17.20
2014,08,07,09,22,17.20
2014,08,07,09,23,17.30
2014,08,07,09,24,17.30
2014,08,07,09,25,17.20
2014,08,07,09,26,17.30
2014,08,07,09,27,17.30
2014,08,07,09,28,17.30
2014,08,07,09,29,17.40
2014,08,07,09,30,17.60
2014,08,07,09,31,17.70
2014,08,07,09,32,17.80
2014,08,07,09,33,17.90
2014,08,07,09,34,18.00
2014,08,07,09,35,18.10
2014,08,07,09,36,18.20
2014,08,07,09,37,18.30
2014,08,07,09,38,18.40
2014,08,07,09,39,18.40
2014,08,07,09,40,18.40
2014,08,07,09,41,18.40
2014,08,07,09,42,18.40
2014,08,07,09,43,18.40
2014,08,07,09,44,18.50
2014,08,07,09,45,18.50
2014,08,07,09,46,18.60
2014,08,07,09,47,18.70
2014,08,07,09,48,18.70
2014,08,07,09,49,18.80
2014,08,07,09,50,18.80
2014,08,07,09,51,18.90
2014,08,07,09,52,18.90
2014,08,07,09,53,18.90
2014,08,07,09,54,18.90
2014,08,07,09,55,18.90
2014,08,07,09,56,18.80
2014,08,07,09,57,18.70
2014,08,07,09,58,18.60
2014,08,07,09,59,18.50
2014,08,07,10,00,18.50
2014,08,07,10,01,18.60
2014,08,07,10,02,18.60
2014,08,07,10,03,18.60
2014,08,07,10,04,18.60
2014,08,07,10,05,18.70
2014,08,07,10,06,18.60
2014,08,07,10,07,18.70
2014,08,07,10,08,18.70
2014,08,07,10,09,18.70
2014,08,07,10,10,18.80
2014,08,07,10,11,18.80
2014,08,07,10,12,18.90
2014,08,07,10,13,19.10
2014,08,07,10,14,19.20
2014,08,07,10,15,19.30
2014,08,07,10,16,19.40
2014,08,07,10,17,19.40
2014,08,07,10,18,19.30
2014,08,07,10,19,19.30
2014,08,07,10,20,19.20
2014,08,07,10,21,19.20
2014,08,07,10,22,19.20
2014,08,07,10,23,19.20
2014,08,07,10,24,19.10
2014,08,07,10,25,19.10
2014,08,07,10,26,19.10
2014,08,07,10,27,19.00
2014,08,07,10,28,19.00
2014,08,07,10,29,19.00
2014,08,07,10,30,19.10
2014,08,07,10,31,19.20
2014,08,07,10,32,19.20
2014,08,07,10,33,19.30
2014,08,07,10,34,19.30
2014,08,07,10,35,19.30
2014,08,07,10,36,19.30
2014,08,07,10,37,19.30
2014,08,07,10,38,19.30
2014,08,07,10,39,19.30
2014,08,07,10,40,19.30
2014,08,07,10,41,19.40
2014,08,07,10,42,19.40
2014,08,07,10,43,19.50
2014,08,07,10,44,19.50
2014,08,07,10,45,19.60
2014,08,07,10,46,19.70
2014,08,07,10,47,19.70
2014,08,07,10,48,19.80
2014,08,07,10,49,19.80
2014,08,07,10,50,19.80
2014,08,07,10,51,19.80
2014,08,07,10,52,19.80
2014,08,07,10,53,19.80
2014,08,07,10,54,20.00
2014,08,07,10,55,20.10
2014,08,07,10,56,20.10
2014,08,07,10,57,20.20
2014,08,07,10,58,20.20
2014,08,07,10,59,20.10
2014,08,07,11,00,20.10
2014,08,07,11,01,20.10
2014,08,07,11,02,20.10
2014,08,07,11,03,20.10
2014,08,07,11,04,20.10
2014,08,07,11,05,20.10
2014,08,07,11,06,20.20
2014,08,07,11,07,20.20
2014,08,07,11,08,20.20
2014,08,07,11,09,20.10
2014,08,07,11,10,20.10
2014,08,07,11,11,20.10
2014,08,07,11,12,20.10
2014,08,07,11,13,20.20
2014,08,07,11,14,20.30
2014,08,07,11,15,20.40
2014,08,07,11,16,20.50
2014,08,07,11,17,20.60
2014,08,07,11,18,20.70
2014,08,07,11,19,20.80
2014,08,07,11,20,20.80
2014,08,07,11,21,20.80
2014,08,07,11,22,20.80
2014,08,07,11,23,20.90
2014,08,07,11,24,20.90
2014,08,07,11,25,21.00
2014,08,07,11,26,21.00
2014,08,07,11,27,21.10
2014,08,07,11,28,21.10
2014,08,07,11,29,21.10
2014,08,07,11,30,21.10
2014,08,07,11,31,21.10
2014,08,07,11,32,21.10
2014,08,07,11,33,21.00
2014,08,07,11,34,21.00
2014,08,07,11,35,21.10
2014,08,07,11,36,21.10
2014,08,07,11,37,21.00
2014,08,07,11,38,21.00
2014,08,07,11,39,21.00
2014,08,07,11,40,20.90
2014,08,07,11,41,21.00
2014,08,07,11,42,21.00
2014,08,07,11,43,21.10
2014,08,07,11,44,21.10
2014,08,07,11,45,21.20
2014,08,07,11,46,21.30
2014,08,07,11,47,21.30
2014,08,07,11,48,21.30
2014,08,07,11,49,21.30
2014,08,07,11,50,21.30
2014,08,07,11,51,21.30
2014,08,07,11,52,21.40
2014,08,07,11,53,21.40
2014,08,07,11,54,21.50
2014,08,07,11,55,21.60
2014,08,07,11,56,21.60
2014,08,07,11,57,21.60
2014,08,07,11,58,21.70
2014,08,07,11,59,21.80
2014,08,07,12,00,21.80
2014,08,07,12,01,21.90
2014,08,07,12,02,22.00
2014,08,07,12,03,21.90
2014,08,07,12,04,21.80
2014,08,07,12,05,21.60
2014,08,07,12,06,21.50
2014,08,07,12,07,21.50
2014,08,07,12,08,21.50
2014,08,07,12,09,21.50
2014,08,07,12,10,21.50
2014,08,07,12,11,21.50
2014,08,07,12,12,21.50
2014,08,07,12,13,21.50
2014,08,07,12,14,21.60
2014,08,07,12,15,21.60
2014,08,07,12,16,21.70
2014,08,07,12,17,21.80
2014,08,07,12,18,21.80
2014,08,07,12,19,21.90
2014,08,07,12,20,21.90
2014,08,07,12,21,21.90
2014,08,07,12,22,21.90
2014,08,07,12,23,21.90
2014,08,07,12,24,21.90
2014,08,07,12,25,22.00
2014,08,07,12,26,21.90
2014,08,07,12,27,22.00
2014,08,07,12,28,22.00
2014,08,07,12,29,21.90
2014,08,07,12,30,21.90
2014,08,07,12,31,21.90
2014,08,07,12,32,21.90
2014,08,07,12,33,22.00
2014,08,07,12,34,22.00
2014,08,07,12,35,22.10
2014,08,07,12,36,22.20
2014,08,07,12,37,22.30
2014,08,07,12,38,22.40
2014,08,07,12,39,22.50
2014,08,07,12,40,22.50
2014,08,07,12,41,22.60
2014,08,07,12,42,22.60
2014,08,07,12,43,22.70
2014,08,07,12,44,22.70
2014,08,07,12,45,22.70
2014,08,07,12,46,22.60
2014,08,07,12,47,22.50
2014,08,07,12,48,22.50
2014,08,07,12,49,22.50
2014,08,07,12,50,22.50
2014,08,07,12,51,22.50
2014,08,07,12,52,22.40
2014,08,07,12,53,22.40
2014,08,07,12,54,22.50
2014,08,07,12,55,22.50
2014,08,07,12,56,22.60
2014,08,07,12,57,22.60
2014,08,07,12,58,22.50
2014,08,07,12,59,22.40
2014,08,07,13,00,22.40
2014,08,07,13,01,22.40
2014,08,07,13,02,22.40
2014,08,07,13,03,22.40
2014,08,07,13,04,22.40
2014,08,07,13,05,22.40
2014,08,07,13,06,22.40
2014,08,07,13,07,22.40
2014,08,07,13,08,22.40
2014,08,07,13,09,22.40
2014,08,07,13,10,22.50
2014,08,07,13,11,22.60
2014,08,07,13,12,22.70
2014,08,07,13,13,22.80
2014,08,07,13,14,22.80
2014,08,07,13,15,22.90
2014,08,07,13,16,22.90
2014,08,07,13,17,22.90
2014,08,07,13,18,22.90
2014,08,07,13,19,22.90
2014,08,07,13,20,22.80
2014,08,07,13,21,22.80
2014,08,07,13,22,22.80
2014,08,07,13,23,22.80
2014,08,07,13,24,22.80
2014,08,07,13,25,22.80
2014,08,07,13,26,22.80
2014,08,07,13,27,22.90
2014,08,07,13,28,22.90
2014,08,07,13,29,23.00
2014,08,07,13,30,23.10
2014,08,07,13,31,23.10
2014,08,07,13,32,23.20
2014,08,07,13,33,23.30
2014,08,07,13,34,23.20
2014,08,07,13,35,23.20
2014,08,07,13,36,23.00
2014,08,07,13,37,22.80
2014,08,07,13,38,22.70
2014,08,07,13,39,22.60
2014,08,07,13,40,22.60
2014,08,07,13,41,22.70
2014,08,07,13,42,22.70
2014,08,07,13,43,22.80
2014,08,07,13,44,22.80
2014,08,07,13,45,22.90
2014,08,07,13,46,22.90
2014,08,07,13,47,23.00
2014,08,07,13,48,23.00
2014,08,07,13,49,23.00
2014,08,07,13,50,23.00
2014,08,07,13,51,23.00
2014,08,07,13,52,23.00
2014,08,07,13,53,23.10
2014,08,07,13,54,23.00
2014,08,07,13,55,23.00
2014,08,07,13,56,22.90
2014,08,07,13,57,22.90
2014,08,07,13,58,22.90
2014,08,07,13,59,22.80
2014,08,07,14,00,22.80
2014,08,07,14,01,22.80
2014,08,07,14,02,22.80
2014,08,07,14,03,22.80
2014,08,07,14,04,22.80
2014,08,07,14,05,22.80
2014,08,07,14,06,22.80
2014,08,07,14,07,22.70
2014,08,07,14,08,22.70
2014,08,07,14,09,22.70
2014,08,07,14,10,22.70
2014,08,07,14,11,22.80
2014,08,07,14,12,22.80
2014,08,07,14,13,22.90
2014,08,07,14,14,22.90
2014,08,07,14,15,22.90
2014,08,07,14,16,23.00
2014,08,07,14,17,23.10
2014,08,07,14,18,23.10
2014,08,07,14,19,23.20
2014,08,07,14,20,23.20
2014,08,07,14,21,23.20
2014,08,07,14,22,23.30
2014,08,07,14,23,23.30
2014,08,07,14,24,23.40
2014,08,07,14,25,23.40
2014,08,07,14,26,23.40
2014,08,07,14,27,23.40
2014,08,07,14,28,23.40
2014,08,07,14,29,23.40
2014,08,07,14,30,23.50
2014,08,07,14,31,23.50
2014,08,07,14,32,23.40
2014,08,07,14,33,23.40
2014,08,07,14,34,23.40
2014,08,07,14,35,23.30
2014,08,07,14,36,23.30
2014,08,07,14,37,23.30
2014,08,07,14,38,23.20
2014,08,07,14,39,23.10
2014,08,07,14,40,23.10
2014,08,07,14,41,23.00
2014,08,07,14,42,22.90
2014,08,07,14,43,22.90
2014,08,07,14,44,22.90
2014,08,07,14,45,22.90
2014,08,07,14,46,22.90
2014,08,07,14,47,22.90
2014,08,07,14,48,22.90
2014,08,07,14,49,22.80
2014,08,07,14,50,22.80
2014,08,07,14,51,22.80
2014,08,07,14,52,22.90
2014,08,07,14,53,22.90
2014,08,07,14,54,22.90
2014,08,07,14,55,22.90
2014,08,07,14,56,22.90
2014,08,07,14,57,23.00
2014,08,07,14,58,23.00
2014,08,07,14,59,23.10
2014,08,07,15,00,23.10
2014,08,07,15,01,23.20
2014,08,07,15,02,23.10
2014,08,07,15,03,23.20
2014,08,07,15,04,23.20
2014,08,07,15,05,23.30
2014,08,07,15,06,23.40
2014,08,07,15,07,23.50
2014,08,07,15,08,23.50
2014,08,07,15,09,23.60
2014,08,07,15,10,23.70
2014,08,07,15,11,23.80
2014,08,07,15,12,23.80
2014,08,07,15,13,23.80
2014,08,07,15,14,23.80
2014,08,07,15,15,23.80
2014,08,07,15,16,23.70
2014,08,07,15,17,23.70
2014,08,07,15,18,23.60
2014,08,07,15,19,23.60
2014,08,07,15,20,23.60
2014,08,07,15,21,23.60
2014,08,07,15,22,23.70
2014,08,07,15,23,23.70
2014,08,07,15,24,23.80
2014,08,07,15,25,23.90
2014,08,07,15,26,23.90
2014,08,07,15,27,23.90
2014,08,07,15,28,23.90
2014,08,07,15,29,23.90
2014,08,07,15,30,23.80
2014,08,07,15,31,23.70
2014,08,07,15,32,23.60
2014,08,07,15,33,23.50
2014,08,07,15,34,23.40
2014,08,07,15,35,23.40
2014,08,07,15,36,23.40
2014,08,07,15,37,23.40
2014,08,07,15,38,23.40
2014,08,07,15,39,23.50
2014,08,07,15,40,23.50
2014,08,07,15,41,23.50
2014,08,07,15,42,23.60
2014,08,07,15,43,23.70
2014,08,07,15,44,23.80
2014,08,07,15,45,23.80
2014,08,07,15,46,23.90
2014,08,07,15,47,24.00
2014,08,07,15,48,23.90
2014,08,07,15,49,23.90
2014,08,07,15,50,23.90
2014,08,07,15,51,23.90
2014,08,07,15,52,24.00
2014,08,07,15,53,24.10
2014,08,07,15,54,24.10
2014,08,07,15,55,24.10
2014,08,07,15,56,24.10
2014,08,07,15,57,24.10
2014,08,07,15,58,24.10
2014,08,07,15,59,24.00
2014,08,07,16,00,24.00
2014,08,07,16,01,24.00
2014,08,07,16,02,23.90
2014,08,07,16,03,24.00
2014,08,07,16,04,24.00
2014,08,07,16,05,24.00
2014,08,07,16,06,24.00
2014,08,07,16,07,24.00
2014,08,07,16,08,24.10
2014,08,07,16,09,24.00
2014,08,07,16,10,24.00
2014,08,07,16,11,24.00
2014,08,07,16,12,23.90
2014,08,07,16,13,23.90
2014,08,07,16,14,23.90
2014,08,07,16,15,23.90
2014,08,07,16,16,23.90
2014,08,07,16,17,23.90
2014,08,07,16,18,23.90
2014,08,07,16,19,23.80
2014,08,07,16,20,23.70
2014,08,07,16,21,23.60
2014,08,07,16,22,23.60
2014,08,07,16,23,23.60
2014,08,07,16,24,23.60
2014,08,07,16,25,23.50
2014,08,07,16,26,23.50
2014,08,07,16,27,23.60
2014,08,07,16,28,23.60
2014,08,07,16,29,23.60
2014,08,07,16,30,23.70
2014,08,07,16,31,23.70
2014,08,07,16,32,23.80
2014,08,07,16,33,23.80
2014,08,07,16,34,23.80
2014,08,07,16,35,23.80
2014,08,07,16,36,23.90
2014,08,07,16,37,23.90
2014,08,07,16,38,23.80
2014,08,07,16,39,23.80
2014,08,07,16,40,23.80
2014,08,07,16,41,23.80
2014,08,07,16,42,23.90
2014,08,07,16,43,23.90
2014,08,07,16,44,23.80
2014,08,07,16,45,23.80
2014,08,07,16,46,23.70
2014,08,07,16,47,23.60
2014,08,07,16,48,23.60
2014,08,07,16,49,23.50
2014,08,07,16,50,23.40
2014,08,07,16,51,23.40
2014,08,07,16,52,23.40
2014,08,07,16,53,23.50
2014,08,07,16,54,23.50
2014,08,07,16,55,23.50
2014,08,07,16,56,23.60
2014,08,07,16,57,23.60
2014,08,07,16,58,23.60
2014,08,07,16,59,23.60
2014,08,07,17,00,23.60
2014,08,07,17,01,23.60
2014,08,07,17,02,23.60
2014,08,07,17,03,23.60
2014,08,07,17,04,23.60
2014,08,07,17,05,23.60
2014,08,07,17,06,23.60
2014,08,07,17,07,23.50
2014,08,07,17,08,23.50
2014,08,07,17,09,23.50
2014,08,07,17,10,23.40
2014,08,07,17,11,23.40
2014,08,07,17,12,23.40
2014,08,07,17,13,23.40
2014,08,07,17,14,23.40
2014,08,07,17,15,23.30
2014,08,07,17,16,23.20
2014,08,07,17,17,23.20
2014,08,07,17,18,23.20
2014,08,07,17,19,23.20